Weather History for Vinton, IA

Change the Weather History Date:

Sunday, December 16, 2012

  Actual Average Record
Temperature  
Mean Temperature 33 °F -  
Max Temperature 39 °F 33 °F 54 °F (1984)
Min Temperature 27 °F 15 °F -16 °F (1951)
Degree Days  
Heating Degree Days 32    
Moisture  
Dew Point 29 °F    
Average Humidity 88    
Maximum Humidity 93    
Minimum Humidity 84    
Precipitation  
Precipitation 0.01 in - - ()
Sea Level Pressure  
Sea Level Pressure 29.71 in    
Wind  
Wind Speed 11 mph (WNW)    
Max Wind Speed 16 mph    
Max Gust Speed 23 mph    
Visibility 5 miles    
Events      
Averages and records for this station are not official NWS values.
T = Trace of Precipitation, MM = Missing Value Source: NWS Daily Summary

Daily Weather History Graph

Daily Weather History Graph

Search for Another Location

Airport:

Trip Planner

Search our weather history database for the weather conditions in past years. The results will help you decide how hot, cold, wet, or windy it might be!

Date:

Astronomy

Dec. 16, 2012 Rise Set
Actual Time 7:30 AM CST 4:37 PM CST
Civil Twilight 6:58 AM CST 5:09 PM CST
Nautical Twilight 6:23 AM CST 5:44 PM CST
Astronomical Twilight 5:49 AM CST 6:18 PM CST
Moon 10:01 AM CST (12/16) 8:55 PM CST (12/16)
Length of Visible Light 10h 10m
Length of Day
9h 06m
Waxing Crescent, 16% of the Moon is Illuminated
Dec 16
Waxing Crescent
Dec 19
First Quarter
Dec 28
Full
Jan 4
Last Quarter
Jan 11
New

Hourly Weather History & Observations

Time (CST) Temp. Windchill Dew Point Humidity Pressure Visibility Wind Dir Wind Speed Gust Speed Precip Events Conditions
12:15 AM 39.2 °F 32.5 °F 36.9 °F 91% 29.59 in 10.0 mi West 10.4 mph - N/A   Overcast
12:35 AM 38.7 °F 31.4 °F 36.5 °F 92% 29.59 in 7.0 mi West 11.5 mph 17.3 mph N/A   Overcast
12:55 AM 37.6 °F 29.1 °F 35.1 °F 91% 29.59 in 10.0 mi West 13.8 mph 20.7 mph N/A   Overcast
1:15 AM 37.4 °F 28.9 °F 34.7 °F 90% 29.60 in 7.0 mi West 13.8 mph 18.4 mph N/A   Overcast
1:35 AM 37.4 °F 28.9 °F 34.7 °F 90% 29.61 in 7.0 mi WNW 13.8 mph - N/A   Overcast
1:55 AM 36.7 °F 27.6 °F 33.6 °F 89% 29.61 in 10.0 mi West 15.0 mph 18.4 mph N/A   Overcast
2:15 AM 34.9 °F 24.9 °F 32.0 °F 89% 29.62 in 7.0 mi West 16.1 mph 23.0 mph N/A   Overcast
2:35 AM 34.9 °F 26.2 °F 32.0 °F 89% 29.63 in 7.0 mi WNW 12.7 mph 19.6 mph N/A   Overcast
2:55 AM 34.9 °F 24.9 °F 32.0 °F 89% 29.64 in 10.0 mi WNW 16.1 mph 21.9 mph N/A   Overcast
3:15 AM 34.9 °F 26.2 °F 32.0 °F 89% 29.64 in 10.0 mi West 12.7 mph 16.1 mph N/A   Overcast
3:35 AM 34.9 °F 27.7 °F 32.0 °F 89% 29.64 in 10.0 mi WNW 9.2 mph 16.1 mph N/A   Overcast
3:55 AM 34.9 °F 25.7 °F 32.0 °F 89% 29.64 in 7.0 mi WNW 13.8 mph 18.4 mph N/A   Overcast
4:15 AM 34.7 °F 25.5 °F 32.0 °F 90% 29.64 in 7.0 mi WNW 13.8 mph 20.7 mph N/A   Overcast
4:35 AM 33.8 °F 25.3 °F 30.7 °F 89% 29.65 in 7.0 mi WNW 11.5 mph 18.4 mph N/A   Overcast
4:55 AM 33.8 °F 26.4 °F 30.6 °F 88% 29.66 in 5.0 mi WNW 9.2 mph 17.3 mph N/A   Overcast
5:15 AM 32.4 °F 23.0 °F 29.1 °F 88% 29.66 in 5.0 mi WNW 12.7 mph - N/A   Overcast
5:35 AM 32.4 °F 24.6 °F 29.3 °F 88% 29.66 in 5.0 mi WNW 9.2 mph 16.1 mph N/A   Overcast
5:55 AM 32.4 °F 23.0 °F 29.3 °F 88% 29.66 in 5.0 mi WNW 12.7 mph - N/A   Overcast
6:15 AM 32.4 °F 24.6 °F 29.3 °F 88% 29.66 in 4.0 mi WNW 9.2 mph - N/A   Overcast
6:35 AM 32.4 °F 25.3 °F 29.7 °F 90% 29.67 in 4.0 mi NW 8.1 mph - N/A   Overcast
7:15 AM 32.4 °F 23.5 °F 29.3 °F 88% 29.69 in 5.0 mi NW 11.5 mph 18.4 mph N/A   Overcast
7:35 AM 32.4 °F 24.6 °F 29.5 °F 89% 29.70 in 4.0 mi WNW 9.2 mph - N/A   Overcast
7:55 AM 32.4 °F 24.0 °F 29.7 °F 90% 29.70 in 4.0 mi West 10.4 mph - N/A   Overcast
8:15 AM 32.4 °F 26.0 °F 29.3 °F 88% 29.71 in 5.0 mi WNW 6.9 mph - N/A   Overcast
8:35 AM 32.4 °F 25.3 °F 29.3 °F 88% 29.71 in 3.0 mi West 8.1 mph - N/A   Overcast
8:55 AM 32.4 °F 24.6 °F 29.3 °F 88% 29.71 in 3.0 mi West 9.2 mph - N/A   Overcast
9:15 AM 32.4 °F 24.0 °F 29.1 °F 88% 29.71 in 4.0 mi WNW 10.4 mph - N/A   Mostly Cloudy
9:35 AM 32.4 °F 24.0 °F 29.3 °F 88% 29.73 in 3.0 mi West 10.4 mph - N/A   Overcast
9:55 AM 32.4 °F 23.5 °F 29.1 °F 88% 29.73 in 4.0 mi WNW 11.5 mph - N/A   Overcast
10:15 AM 33.3 °F 24.6 °F 30.0 °F 88% 29.74 in 4.0 mi WNW 11.5 mph 17.3 mph N/A   Overcast
10:35 AM 32.4 °F 22.5 °F 29.1 °F 88% 29.74 in 4.0 mi WNW 13.8 mph - N/A   Overcast
10:55 AM 33.6 °F 24.6 °F 30.2 °F 87% 29.74 in 4.0 mi WNW 12.7 mph 17.3 mph N/A   Overcast
11:15 AM 32.9 °F 23.7 °F 29.5 °F 87% 29.73 in 4.0 mi NW 12.7 mph 18.4 mph N/A   Overcast
11:35 AM 34.9 °F 26.6 °F 31.1 °F 86% 29.72 in 4.0 mi NW 11.5 mph - N/A   Overcast
12:15 PM 32.9 °F 25.3 °F 29.5 °F 87% 29.72 in 5.0 mi NW 9.2 mph - N/A   Overcast
12:35 PM 32.4 °F 24.6 °F 28.4 °F 85% 29.72 in 4.0 mi WNW 9.2 mph 17.3 mph N/A   Overcast
12:55 PM 32.4 °F 24.0 °F 28.4 °F 85% 29.71 in 4.0 mi NW 10.4 mph - N/A   Overcast
1:15 PM 32.4 °F 24.0 °F 28.8 °F 87% 29.71 in 4.0 mi WNW 10.4 mph - N/A   Overcast
1:35 PM 32.4 °F 24.6 °F 28.4 °F 85% 29.70 in 5.0 mi NW 9.2 mph - N/A   Overcast
1:55 PM 32.4 °F 23.5 °F 28.6 °F 86% 29.70 in 4.0 mi NW 11.5 mph - N/A   Overcast
2:15 PM 32.4 °F 26.0 °F 28.4 °F 85% 29.70 in 4.0 mi NW 6.9 mph - N/A   Overcast
2:35 PM 32.5 °F 26.2 °F 28.8 °F 86% 29.70 in 4.0 mi NW 6.9 mph - N/A   Overcast
2:55 PM 33.4 °F 28.1 °F 29.3 °F 85% 29.70 in 4.0 mi NW 5.8 mph - N/A   Overcast
3:35 PM 32.4 °F 25.3 °F 28.2 °F 85% 29.70 in 5.0 mi North 8.1 mph - N/A   Overcast
3:55 PM 32.4 °F 26.9 °F 28.2 °F 85% 29.71 in 5.0 mi North 5.8 mph - N/A   Mostly Cloudy
4:15 PM 32.4 °F 26.9 °F 28.4 °F 85% 29.71 in 7.0 mi North 5.8 mph - N/A   Overcast
4:35 PM 32.4 °F 26.9 °F 28.4 °F 85% 29.72 in 7.0 mi NNW 5.8 mph - N/A   Mostly Cloudy
4:55 PM 31.1 °F 26.4 °F 27.0 °F 85% 29.73 in 7.0 mi NW 4.6 mph - N/A   Scattered Clouds
5:15 PM 31.3 °F 25.6 °F 27.0 °F 84% 29.74 in 7.0 mi NW 5.8 mph - N/A   Mostly Cloudy
5:35 PM 30.2 °F 23.4 °F 26.6 °F 86% 29.74 in 7.0 mi WNW 6.9 mph - N/A   Overcast
5:55 PM 30.2 °F 22.6 °F 26.6 °F 86% 29.74 in 7.0 mi WNW 8.1 mph - N/A   Mostly Cloudy
6:15 PM 30.2 °F 22.6 °F 26.6 °F 86% 29.75 in 5.0 mi West 8.1 mph - N/A   Mostly Cloudy
6:35 PM 30.2 °F 22.6 °F 26.6 °F 86% 29.76 in 7.0 mi WNW 8.1 mph - N/A   Overcast
6:55 PM 30.2 °F 21.3 °F 27.1 °F 88% 29.77 in 5.0 mi WNW 10.4 mph - N/A   Overcast
7:15 PM 30.2 °F 23.4 °F 27.1 °F 88% 29.78 in 5.0 mi WNW 6.9 mph - N/A   Overcast
7:35 PM 30.2 °F 21.9 °F 27.1 °F 88% 29.79 in 5.0 mi NW 9.2 mph - N/A   Overcast
7:55 PM 29.3 °F 20.2 °F 26.2 °F 88% 29.78 in 5.0 mi NW 10.4 mph - N/A   Overcast
8:15 PM 28.9 °F 20.4 °F 25.7 °F 88% 29.78 in 5.0 mi NW 9.2 mph - N/A   Overcast
8:35 PM 28.8 °F 20.9 °F 25.7 °F 88% 29.78 in 5.0 mi NW 8.1 mph - N/A   Overcast
8:55 PM 28.4 °F 22.2 °F 25.5 °F 89% 29.78 in 5.0 mi NNW 5.8 mph - N/A   Overcast
9:15 PM 27.5 °F 18.0 °F 24.8 °F 90% 29.78 in 5.0 mi NW 10.4 mph - N/A   Overcast
9:35 PM 27.5 °F 18.6 °F 25.3 °F 92% 29.78 in 5.0 mi NW 9.2 mph - N/A   Overcast
9:55 PM 27.5 °F 18.0 °F 25.5 °F 92% 29.78 in 4.0 mi WNW 10.4 mph - N/A   Overcast
10:15 PM 27.5 °F 18.0 °F 25.5 °F 92% 29.78 in 4.0 mi NW 10.4 mph - N/A   Overcast
10:35 PM 27.5 °F 19.3 °F 25.5 °F 92% 29.78 in 4.0 mi NW 8.1 mph - N/A   Overcast
10:55 PM 27.5 °F 18.6 °F 25.5 °F 92% 29.79 in 4.0 mi WNW 9.2 mph - N/A   Overcast
11:15 PM 27.5 °F 21.1 °F 25.5 °F 92% 29.79 in 3.0 mi NW 5.8 mph - N/A   Overcast
11:55 PM 27.5 °F 21.1 °F 25.7 °F 93% 29.79 in 3.0 mi NW 5.8 mph - N/A   Overcast